Simultaneous Nadir Overpasses (SNOs) Predictions

Prediction of SNOs between GOES-16 and NOAA-19 Satellite Orbit:

Table of predicted SNOs for the next 14.0 days since TLE Epoch: 10/3/2025
Index Date Time (GOES-16) GOES-16 Lat,Lon NOAA-19 Lat,Lon Distance(km) Time Diff (sec)
1 10/05/2025 05:06:52 -0.07,-104.67 -0.61,-106.91 256.07 80
2 10/06/2025 04:51:32 -0.07,-104.67 0.11,-103.84 95.02 80
3 10/07/2025 04:38:51 -0.07,-104.67 0.82,-100.76 446.09 80
4 10/08/2025 17:09:55 0.08,-104.72 0.90,-108.23 401.08 80
5 10/09/2025 16:57:14 0.08,-104.71 0.20,-105.15 50.20 80
6 10/10/2025 16:47:14 0.08,-104.71 -0.50,-102.07 300.66 80
7 10/13/2025 05:05:49 -0.09,-104.66 -0.50,-106.51 210.89 80
8 10/14/2025 04:50:27 -0.10,-104.66 0.17,-103.43 140.00 80
9 10/15/2025 04:37:47 -0.10,-104.66 0.90,-100.36 491.01 80
10 10/16/2025 17:08:52 0.10,-104.70 0.81,-107.83 357.49 80
